Theta_e
322 316 312 313 310 309 307 304 301 297 296 295 295 294 294 294 294 298 299 312 316 317 318 319 321 322 323 323 324 325 325 322 319 320 320 320 321 322 322 324 321 320 321
321 316 312 312 310 309 306 303 298 296 294 294 294 294 294 294 295 296 300 305 315 318 316 318 320 322 322 325 324 324 324 320 315 318 316 315 317 318 318 320 317 317 318
319 316 311 311 311 308 304 299 296 295 293 294 292 293 293 294 294 295 299 302 305 313 316 317 317 319 322 321 319 319 323 318 315 317 313 315 317 319 319 317 316 318 318
318 313 310 308 308 305 301 297 295 293 292 291 290 291 292 293 293 294 295 299 299 301 308 313 316 319 320 320 319 324 321 321 317 313 314 315 314 314 314 314 314 314 315
315 312 310 307 306 301 297 296 292 292 290 290 290 289 291 291 292 294 293 293 293 298 298 306 307 308 312 316 318 322 319 316 314 314 312 312 311 311 312 312 313 312 314
314 310 308 305 302 298 294 293 292 291 290 290 292 291 290 290 290 290 291 292 291 293 296 295 295 298 308 310 316 318 316 315 314 310 309 309 309 309 310 310 311 312 312
315 308 305 304 299 298 295 293 291 290 289 288 288 287 287 289 289 289 289 289 290 291 291 292 293 295 299 310 314 317 318 316 311 308 308 307 307 307 308 309 310 310 311
312 309 304 301 298 294 293 292 291 289 290 289 287 285 283 286 287 289 288 288 288 289 289 291 291 294 296 298 304 315 316 315 310 308 306 306 306 306 307 308 308 309 310
308 307 304 301 298 296 294 292 291 290 289 288 289 288 283 283 283 286 287 287 287 286 287 288 290 292 295 296 301 306 312 311 309 306 305 304 305 306 306 307 307 307 308
303 304 304 301 298 296 294 292 292 290 289 287 287 291 288 287 283 282 285 286 286 286 286 286 288 290 293 293 295 298 305 305 304 304 303 303 304 305 305 305 306 306 307
295 298 299 301 299 297 295 293 293 290 289 288 288 286 286 286 286 283 281 282 284 285 286 286 287 287 291 291 290 294 300 301 300 299 300 301 302 303 304 304 305 305 305
291 291 292 293 295 296 294 293 293 292 292 289 288 287 287 286 285 285 282 281 281 283 284 286 286 288 289 290 291 294 298 299 298 297 298 298 299 301 302 303 303 303 303
288 288 288 288 290 292 293 292 289 289 291 291 292 289 289 288 286 286 285 281 281 282 282 284 286 287 289 289 288 292 296 296 297 297 296 297 298 298 299 301 301 301 301
287 288 288 287 287 288 289 290 289 287 287 288 291 290 291 289 287 286 286 282 280 279 280 282 283 287 288 289 289 292 289 294 295 297 296 296 296 297 298 298 298 298 299
286 286 286 286 286 286 286 287 286 286 286 286 287 288 290 291 290 288 286 285 285 281 280 280 281 285 288 288 288 288 285 292 293 295 295 295 295 296 296 297 297 297 297
283 283 284 284 285 285 285 284 284 284 284 285 286 285 286 289 289 290 289 285 284 289 285 283 282 283 287 288 287 286 283 288 291 293 294 294 294 295 295 295 296 296 296
281 282 282 282 283 283 283 283 283 284 283 284 284 284 285 285 287 289 285 286 287 283 287 285 281 282 285 286 285 284 283 284 285 291 292 293 293 293 294 294 294 294 294
280 280 281 281 282 282 282 282 283 284 283 284 284 284 284 286 284 286 286 286 287 285 287 286 280 281 283 286 284 283 282 282 282 288 291 292 292 292 293 293 293 293 292
279 279 279 279 280 281 281 282 282 283 283 284 285 285 285 285 284 285 285 285 287 286 284 283 281 279 281 284 280 282 280 280 280 284 289 290 291 292 292 293 292 291 291
278 278 278 279 279 280 280 281 282 282 282 283 284 285 285 284 285 285 285 285 286 286 285 283 279 278 279 280 282 280 278 279 279 280 285 287 289 290 291 292 291 290 290
278 278 277 277 277 277 278 279 280 280 281 282 283 284 284 285 286 287 285 285 286 285 285 285 283 277 277 278 280 280 280 280 280 280 279 280 283 285 286 291 289 290 289
277 277 277 277 276 277 280 281 281 279 279 280 280 282 283 284 285 288 289 290 288 285 285 285 284 282 281 282 282 280 280 277 276 279 278 278 281 281 282 284 289 289 289
275 275 275 275 275 275 279 280 280 278 277 277 278 280 281 283 283 284 286 289 289 290 291 286 285 284 283 283 282 281 281 280 281 279 280 278 278 278 281 282 288 289 288
272 272 272 272 272 273 277 278 278 276 275 276 276 278 279 280 282 283 283 283 284 286 287 288 288 287 287 284 283 284 282 282 280 279 281 277 278 278 280 281 287 288 288
268 268 269 268 268 268 273 273 273 271 272 272 274 275 276 277 281 284 283 282 282 283 287 289 290 291 291 291 285 283 281 279 277 277 279 279 278 279 279 279 282 288 288
265 266 265 265 265 264 269 270 271 269 268 269 270 272 275 276 279 282 280 281 280 281 283 284 285 288 289 289 289 283 283 279 280 276 280 278 277 276 275 278 279 282 284
Wind_Speed
6 6 5 4 4 4 5 5 5 4 4 3 3 4 3 3 4 2 1 4 4 1 4 4 4 5 5 5 7 8 10 8 4 6 7 6 5 6 5 10 7 5 4
5 7 6 6 5 5 5 5 5 5 4 4 4 4 3 2 3 4 2 2 5 5 3 4 4 4 6 6 6 9 9 9 1 5 5 3 3 3 4 8 5 5 5
7 7 6 6 6 5 7 5 4 4 4 3 4 3 4 4 3 4 3 2 2 7 8 4 3 7 9 8 5 5 8 9 4 5 2 3 6 6 7 6 4 6 7
9 7 5 4 5 5 5 5 5 4 4 5 4 4 3 3 4 4 4 4 2 2 5 6 6 5 6 8 6 11 11 10 6 3 3 5 5 3 3 3 3 4 5
6 7 4 4 5 4 4 4 1 3 3 3 4 3 3 3 3 2 3 4 4 4 2 2 5 5 5 4 8 9 9 7 5 5 3 3 3 3 3 3 3 3 4
6 4 4 6 5 4 4 3 4 1 2 4 3 3 2 3 3 4 4 3 2 3 4 4 1 1 2 5 8 10 9 9 8 5 4 1 1 1 1 1 2 3 3
6 6 4 5 5 7 7 6 4 5 1 3 4 2 2 3 4 4 4 4 5 4 4 3 2 2 1 5 9 11 13 12 9 6 5 2 3 3 2 2 2 2 3
1 4 6 5 5 4 5 6 6 4 4 6 5 2 2 4 3 4 4 4 6 4 5 5 5 4 2 1 4 14 13 13 10 7 6 5 4 4 3 3 2 3 4
5 0 3 4 5 5 7 7 6 7 6 6 6 6 2 6 1 1 5 4 5 4 4 5 6 6 4 2 3 3 10 12 10 8 7 6 6 5 4 4 4 3 3
6 5 4 2 3 3 4 5 5 4 4 6 3 7 2 4 4 2 2 4 5 6 6 5 5 6 6 5 7 5 9 12 11 9 9 8 7 6 5 5 4 4 4
10 10 6 4 2 3 4 5 4 6 4 4 5 1 2 2 2 3 4 4 2 5 6 6 6 5 6 7 6 8 13 12 12 11 11 10 9 8 7 6 6 5 4
6 9 10 7 6 4 4 5 6 6 8 6 4 5 4 4 4 4 3 4 4 4 5 5 7 7 5 6 10 15 17 16 15 14 13 12 11 9 8 7 6 5 4
6 9 7 7 5 6 6 4 5 5 7 8 11 8 8 6 3 3 2 3 4 4 3 4 7 6 7 6 8 13 17 17 17 17 16 15 13 12 10 9 7 7 6
6 7 8 7 7 7 7 6 3 4 5 6 11 8 9 8 5 5 5 5 1 3 2 6 5 9 9 8 11 18 10 19 19 19 18 17 15 14 13 10 8 7 6
7 9 9 9 8 7 7 7 4 6 5 6 7 8 9 8 6 7 4 5 6 7 8 6 5 10 9 8 12 12 10 17 20 21 20 19 17 16 14 12 10 8 7
6 7 8 9 9 8 7 7 5 6 6 5 5 7 8 7 8 7 8 5 5 12 12 7 10 6 12 9 12 12 11 17 21 21 20 19 18 16 15 14 13 12 10
6 7 7 7 8 8 7 7 7 7 7 7 6 7 8 7 9 9 5 7 9 6 14 7 4 5 10 11 10 10 11 11 10 22 21 20 18 17 17 16 15 14 11
6 6 7 7 7 7 7 7 8 9 8 8 8 7 9 7 9 10 8 11 11 7 11 17 6 5 8 15 13 13 10 9 10 18 21 21 20 19 19 18 17 15 14
7 8 7 8 9 8 8 9 9 9 9 9 9 10 11 9 10 9 10 11 10 8 8 7 7 2 4 7 5 7 10 9 7 16 21 22 22 21 20 19 18 17 15
7 8 8 10 11 11 11 11 11 11 11 11 10 10 11 11 12 11 11 13 11 11 8 9 5 4 4 4 8 10 7 7 10 8 15 15 18 21 21 22 21 18 17
10 11 11 11 11 11 10 11 11 11 12 14 14 13 13 14 19 17 10 11 12 11 11 12 12 4 5 5 16 9 11 9 9 8 9 8 8 9 11 21 14 17 18
13 13 14 14 15 12 24 27 23 15 16 16 17 17 14 15 18 25 26 27 20 13 15 13 14 15 17 11 11 11 10 7 8 9 10 11 10 10 9 10 20 22 22
15 16 16 16 17 18 28 30 30 17 17 18 19 18 17 13 15 15 22 27 27 31 30 18 19 20 14 13 12 14 17 15 11 7 16 12 10 12 10 10 23 23 24
16 16 17 17 18 18 31 32 32 20 18 20 19 20 20 20 19 17 16 17 18 19 21 17 22 21 17 10 15 17 16 12 3 3 14 10 9 11 9 9 25 26 25
15 16 17 18 18 20 29 33 30 19 20 22 20 21 21 23 28 30 21 20 19 19 20 29 31 30 28 23 19 10 11 11 8 4 12 6 7 7 9 8 11 27 26
16 14 16 16 19 20 25 30 26 14 18 16 20 22 29 30 36 35 23 20 20 21 16 16 18 25 27 21 25 20 15 15 13 7 10 11 6 7 4 4 9 11 13
Wind_Direction
173 158 167 161 161 155 155 161 166 180 185 160 147 147 140 128 118 125 107 78 30 359 181 178 167 166 156 171 183 129 112 98 68 88 62 48 41 62 92 78 73 71 63
174 169 170 172 167 172 166 165 171 177 180 165 163 151 146 127 122 125 130 70 61 38 144 172 176 177 161 126 159 135 137 115 121 122 67 56 92 92 87 95 83 71 76
170 173 173 178 180 174 161 156 166 156 158 168 171 164 155 160 155 145 155 167 84 60 64 51 229 196 204 169 148 188 142 117 148 110 82 116 112 76 82 71 84 77 77
171 163 170 175 174 163 160 164 164 168 179 175 171 192 176 163 167 167 144 148 149 83 58 64 52 83 170 172 149 137 158 118 118 128 187 100 89 122 112 110 88 84 78
147 152 163 175 155 152 157 164 139 143 175 181 179 174 180 175 184 162 151 152 157 148 146 72 64 44 56 149 190 165 147 137 177 173 159 101 100 152 150 136 105 94 87
146 151 160 165 151 146 153 158 153 158 158 170 151 157 199 206 187 182 185 181 189 167 170 162 131 319 252 216 208 205 180 176 153 162 184 137 112 172 144 118 101 85 86
166 161 175 168 162 173 175 167 136 168 206 160 94 357 325 262 226 211 196 193 196 192 191 185 183 199 289 227 218 205 191 167 163 183 191 195 210 218 202 171 127 98 89
195 165 167 182 169 145 168 174 162 155 185 188 152 117 234 307 270 230 221 203 204 188 193 199 196 202 186 201 253 226 194 175 174 186 201 205 208 211 201 169 151 139 117
5 217 205 175 178 178 190 193 187 172 193 210 226 152 127 227 149 220 229 220 206 209 207 198 202 195 173 189 120 135 173 177 179 186 197 209 212 208 199 180 165 148 124
0 25 340 316 221 194 196 200 201 193 142 199 275 242 212 147 183 247 283 227 209 213 211 214 201 201 179 168 164 166 163 170 182 189 206 211 212 208 202 195 179 158 141
14 350 339 346 283 211 223 214 209 210 189 178 211 222 215 235 143 137 216 250 260 217 210 199 199 202 196 175 172 178 180 185 187 195 203 207 211 210 206 198 181 167 153
5 12 358 345 332 307 243 229 219 220 225 225 216 200 194 186 206 183 164 218 213 243 205 203 205 209 198 189 187 182 186 192 196 198 201 203 207 210 209 203 190 176 163
3 354 346 343 351 330 308 263 244 233 226 229 234 236 235 230 184 203 150 190 202 230 212 214 209 201 206 187 193 183 188 194 202 203 202 202 201 204 209 205 199 189 176
350 343 344 347 354 350 338 315 284 260 238 237 241 238 246 237 206 194 191 155 247 250 247 231 204 203 201 195 192 186 188 196 204 208 206 204 203 202 203 206 208 202 192
353 348 347 357 352 348 343 333 312 299 277 256 247 242 244 249 244 235 209 185 200 239 229 224 209 207 201 182 190 188 181 196 205 211 211 207 204 203 204 202 200 201 202
339 344 346 348 349 347 340 338 321 301 295 278 259 246 252 256 249 247 241 225 223 242 258 193 216 197 197 192 189 183 189 189 204 212 215 210 207 208 207 204 199 195 192
334 339 330 333 332 335 334 332 314 300 295 287 280 261 258 246 257 258 239 238 240 209 250 246 215 199 191 193 189 191 184 190 200 211 214 213 210 210 209 207 203 199 195
323 315 311 312 303 310 317 313 309 305 292 289 278 270 266 263 257 260 253 249 246 227 238 247 193 199 192 199 191 189 191 198 191 204 213 216 210 211 214 212 207 202 194
305 312 313 306 304 295 291 291 289 288 284 277 275 273 272 262 261 260 253 253 244 240 232 231 222 180 207 188 162 197 194 191 193 196 212 218 216 212 214 216 212 208 201
283 288 288 293 297 298 294 286 278 275 272 272 266 260 261 254 258 254 251 251 250 244 233 238 218 188 180 185 191 190 193 202 205 197 208 208 212 215 212 214 214 209 202
306 299 300 296 292 290 289 291 286 283 278 278 270 263 259 252 249 246 252 253 250 244 239 238 241 199 197 171 196 179 203 192 216 201 199 208 197 203 216 215 211 208 211
305 301 297 296 293 289 293 297 297 292 290 286 282 276 264 254 256 253 250 247 240 244 242 237 242 232 225 214 195 187 183 169 211 194 194 214 196 201 210 214 201 200 205
303 298 293 292 290 289 291 295 295 293 292 285 280 278 273 263 253 249 250 247 242 241 240 242 243 239 232 213 188 195 199 194 207 159 187 213 191 213 195 208 204 205 203
299 298 295 295 292 288 294 298 299 295 288 283 281 280 275 269 261 253 250 245 238 233 234 234 241 249 240 204 207 206 201 209 29 146 182 196 176 210 191 193 202 203 200
296 294 291 293 293 292 302 301 302 296 286 282 280 275 271 271 270 263 255 251 247 239 234 232 234 243 248 242 201 190 200 190 210 198 196 153 181 174 185 184 193 199 197
287 290 290 289 289 291 297 299 298 287 284 283 281 277 273 270 270 265 259 252 250 244 227 231 235 236 237 238 224 206 191 203 216 202 201 180 154 149 177 192 185 195 192